Regional Weather Roundup
Issued by NWS Grand Forks, ND

Home | Current Version | Previous Version | Graphics & Text | Print | Product List | Glossary On
Versions: 1 2 3 4 5 6 7 8 9 10 11 12 13 14 15 16 17 18 19 20 21 22 23 24 25 26 27 28 29 30 31 32 33 34 35 36 37 38 39 40 41 42 43 44 45 46 47 48 49 50
000
ASUS43 KFGF 022031
RWRFGF
PRAIRIE TO PINES  WEATHER ROUNDUP
NATIONAL WEATHER SERVICE EASTERN NORTH DAKOTA/GRAND FORKS ND
300 PM CDT TUE SEP 02 2014

 **SATELLITE DATA USED TO AUGMENT SKY COVER AT AUTOMATED STATIONS**
 *****  WEATHER ACROSS EASTERN NORTH DAKOTA  *****

CITY           SKY/WX    TMP DP  RH WIND       PRES   REMARKS
GRAND FORKS    MOSUNNY   74  54  49 S13       29.72F
GRAND FRKS AFB MOSUNNY   75  56  53 SW14      29.73F
GRAND FRKS NWS   N/A     75 N/A N/A SW14        N/A
DEVILS LAKE    SUNNY     75  52  43 W16G22    29.69F
FARGO          SUNNY     79  53  40 SW16      29.77F
WAHPETON ARPT  CLEAR     77  50  38 SW15      29.81S
$$

 ***** WEATHER ACROSS CENTRAL AND WESTERN NORTH DAKOTA  *****

CITY           SKY/WX    TMP DP  RH WIND       PRES   REMARKS
BISMARCK       PTSUNNY   78  50  37 W10       29.79S
MINOT          SUNNY     76  47  35 W15G24    29.72S
JAMESTOWN      MOSUNNY   78  52  40 SW13      29.76F
MINOT AFB      SUNNY     74  50  43 NW16G25   29.72R
GARRISON         N/A     75  45  34 W17G24    29.76S
WILLISTON      MOSUNNY   75  45  34 NW8       29.77S
DICKINSON      PTSUNNY   74  43  32 W22       29.82S
HETTINGER      MOSUNNY   74  45  35 W13G22    29.85F
$$

 *****  OTHER AIRPORT OBSERVATIONS IN OUR AREA  *****

CITY           SKY/WX    TMP DP  RH WIND       PRES   REMARKS
WALHALLA       CLOUDY    73  50  43 W8        29.67R
GRAFTON AIRPOR FAIR      75  55  50 S20       29.68F
VALLEY CITY AR FAIR      77  54  44 SW15G25   29.77F
CANDO          FAIR      77  52  41 W17G23    29.70S
CAVALIER APRT  FAIR      75  54  46 SW10G21   29.66F
GWINNER        CLEAR     79  57  47 SW15      29.81F
ROLLA          FAIR      72  54  53 W15G22    29.71S
 ***** THE ABOVE OBSERVATIONS ARE NON NWS ARE NOT QUALITY
       CONTROLLED AND MAY MIS-REPORT RAIN FOR SNOW...
$$

  *****  WEATHER ACROSS NORTHERN MINNESOTA  *****

CITY           SKY/WX    TMP DP  RH WIND       PRES   REMARKS
FLAG ISLAND    MOSUNNY   68  50  52 SW10      29.71F
WARROAD        MOSUNNY   70  50  49 SW7       29.73F
ROSEAU         SUNNY     73  50  43 S12       29.72F
HALLOCK        SUNNY     75  57  53 S15       29.67F
THF RVR FALLS  SUNNY     73  54  49 S13G21    29.74F
BAUDETTE       CLOUDY    71  46  40 VRB6      29.75F
WASKISH        PTSUNNY   72  55  56 CALM      29.77F
CROOKSTON      MOSUNNY   73  55  53 SW18      29.74F
$$
  *****  WEATHER ACROSS CENTRAL AND WEST MINNESOTA  *****

CITY           SKY/WX    TMP DP  RH WIND       PRES   REMARKS
FOSSTON        PTSUNNY   72  55  56 S15       29.78F
BEMIDJI        PTSUNNY   73  51  45 SW17G24   29.79F
PARK RAPIDS    PTSUNNY   75  50  41 SW15      29.83F
ELBOW LAKE     FAIR      74  56  53 SW13      29.84F
WADENA         MOSUNNY   73  52  46 SW9G22    29.83F
DETROIT LAKES  PTSUNNY   73  52  46 SW15      29.83S
MOORHEAD       MOSUNNY   79  50  36 SW12G17   29.78F
FERGUS FALLS   SUNNY     77  48  36 SW14      29.82F
MORRIS MN      SUNNY     79  55  44 SW10      29.85F
STAPLES        MOSUNNY   75  48  38 SW10G22   29.84F
$$
  *****  WEATHER ELSEWHERE ACROSS MINNESOTA  *****

CITY           SKY/WX    TMP DP  RH WIND       PRES   REMARKS
DULUTH         MOSUNNY   76  49  38 W16G23    29.82S
INTRNTL FALLS  MOSUNNY   72  50  45 W9        29.76S
ELY            SUNNY     70  46  43 W9G18     29.77F
CLOQUET        MOSUNNY   73  46  38 SW12G17   29.83F
WHEATON        SUNNY     75  54  46 SW14      29.84F
BRAINERD       MOSUNNY   75  49  39 W16G24    29.85S
HIBBING        TSTM      66  53  63 NW10      29.81R
ALEXANDRIA     SUNNY     76  53  44 SW14      29.88S
SAINT CLOUD    SUNNY     79  51  37 W18G24    29.87F
MINNEAPOLIS    MOSUNNY   77  48  35 W13G20    29.89S
$$

  *****  WEATHER ACROSS SOUTH DAKOTA  *****

CITY           SKY/WX    TMP DP  RH WIND       PRES   REMARKS
SIOUX FALLS    MOSUNNY   74  58  57 SW6       29.94S
BROOKINGS      NOT AVBL
WATERTOWN      SUNNY     75  53  46 W15       29.89F
HURON          SUNNY     78  50  37 SW10      29.88F
SISSETON         N/A     79  51  37 W14G23    29.82F
ABERDEEN       SUNNY     78  52  40 SW15G21   29.83F
MITCHELL       SUNNY     77  53  43 SW8       29.91F
PIERRE         SUNNY     82  46  28 SW13      29.84F
MOBRIDGE       MOSUNNY   82  47  29 SW10      29.80F
RAPID CITY     SUNNY     79  50  36 SE9       29.89S
$$

  *****  SOME WEATHER IN NEARBY STATES *****

CITY           SKY/WX    TMP DP  RH WIND       PRES   REMARKS
GLASGOW MT     MOSUNNY   72  43  35 W7        29.78F
GREAT FALLS MT PTSUNNY   72  37  28 SW18G24   29.79F
CHEYENNE WY    SUNNY     79  36  21 S14       30.08F
SCOTTSBLUFF NE SUNNY     86  41  20 W9        29.95F
OMAHA NE       MOSUNNY   79  53  40 SW9       29.99F
DES MOINES IA  MOSUNNY   79  57  46 W10       29.96F
DAVENPORT IA   MOSUNNY   78  63  59 W7        29.94F
CHICAGO IL     PTSUNNY   82  55  39 NW13      29.90S
EAU CLAIRE WI  SUNNY     76  55  48 W8        29.88S
LA CROSSE WI   PTSUNNY   80  57  45 W10       29.90S
$$

  *****  SOME NATIONAL WEATHER *****

CITY           SKY/WX    TMP DP  RH WIND       PRES   REMARKS
LA GUARDIA NY  PTSUNNY   92  67  43 SW15G23   29.81F HX  95
RALEIGH NC     MOSUNNY   94  68  42 W8        29.98F HX  98
ATLANTA GA     LGT RAIN  74  70  87 N8        30.07F
NEW ORLEANS LA PTSUNNY   90  71  53 S8        30.00F HX  96
OKLAHOMA CITY  PTSUNNY   88  70  55 SE18G31   29.95F HX  93
ALBUQUERQUE NM MOSUNNY   90  33  13 W7        30.11F
SALT LAKE CITY MOSUNNY   87  37  17 W8        29.95F
LOS ANGELES CA MOSUNNY   77  62  59 W12       29.83F
BOISE ID       SUNNY     84  33  16 VRB5      29.87F
SEATTLE WA     PTSUNNY   66  55  68 S8        29.90F
$$

*** WEATHER ACROSS MANITOBA...SASKATCHEWAN AND ONTARIO ***
                ***ONTARIO***

CITY           SKY/WX    TMP DP  RH WIND       PRES   REMARKS
GERALDTON      MOSUNNY   68  50  52 W18       29.69S
THUNDER BAY    LGT RAIN  72  50  46 NW13G20   29.73S
SIOUX LOOKOUT  PTSUNNY   68  50  52 W7        29.71S
TORONTO        LGT RAIN  66  64  94 VRB2      29.80S
BIG TROUT LK     N/A     64  55  72 MISG      29.57F
PICKLE LAKE    PTSUNNY   63  50  63 CALM      29.66F
DRYDEN         PTSUNNY   70  46  43 SW13G20   29.72F
KENORA         PTSUNNY   70  45  40 NW8G18    29.73S
$$
                *** MANITOBA***

CITY           SKY/WX    TMP DP  RH WIND       PRES   REMARKS
BRANDON        PTSUNNY   70  52  52 W9        29.69F
DAUPHIN        SUNNY     66  54  63 SW10      29.67F
ISLAND LAKE    LGT RAIN  59  52  77 W6        29.59R
PILOT MOUND      N/A     73  50  43 W7          N/A
THE PAS        PTSUNNY   66  46  48 NW13      29.60S
THOMPSON       PTSUNNY   64  50  59 NW9       29.52R
WINNIPEG       TSTM      64  55  72 NW13      29.68R
LYNN LAKE      CLOUDY    55  46  71 MISG      29.58R
CHURCHILL      CLOUDY    55  52  88 E16       29.53R
GILLAM         LGT RAIN N/A N/A N/A SW8         N/A
$$
                ***SASKATCHEWAN***

CITY           SKY/WX    TMP DP  RH WIND       PRES   REMARKS
ESTEVAN        PTSUNNY   70  48  46 W17       29.75S
KINDERSLEY     CLOUDY    66  43  42 W8        29.73F
LLOYDMINSTER   PTSUNNY   59  46  63 W7        29.72F
PRINCE ALBERT  PTSUNNY   63  48  59 N9        29.69S
REGINA         MOSUNNY   66  52  59 W9G17     29.75S
YORKTON        PTSUNNY   64  50  59 W12G18    29.70R
N. BATTLEFORD  PTSUNNY   63  46  55 W8        29.74S
LA RONGE       PTSUNNY   64  45  48 W13G18    29.66
SASKATOON      PTSUNNY   64  46  52 NW9       29.74S
SWIFT CURRENT  MOSUNNY   68  37  32 VRB3      29.74F
$$
NOTE: THESE ARE AUTOMATED STATIONS WITH LIMITED QUALITY CONTROL
      "FAIR" INDICATES FEW OR NO CLOUDS BELOW 12,000 FEET WITH NO
      SIGNIFICANT WEATHER AND/OR OBSTRUCTIONS TO VISIBILITY.
      SKY/WX - SKY CONDITION AND SIGNIFICANT WEATHER.
      TMP - AIR TEMPERATURE.    DP   - DEWPOINT TEMPERATURE.
      RH  - RELATIVE HUMIDITY.  PRES - PRESSURE.
      HX  - HEAT INDEX.         WCI  - WIND CHILL INDEX.
$



USA.gov is the U.S. government's official web portal to all federal, state and local government web resources and services.